TimeCST,TemperatureF,Dew PointF,Humidity,Sea Level PressureIn,VisibilityMPH,Wind Direction,Wind SpeedMPH,Gust SpeedMPH,PrecipitationIn,Events,Conditions,WindDirDegrees,DateUTC
12:56 AM,30.2,26.6,86,29.70,10.0,Calm,Calm,-,N/A,,Clear,0,2012-01-06 06:56:00
1:56 AM,30.0,25.0,82,29.73,10.0,Calm,Calm,-,N/A,,Clear,0,2012-01-06 07:56:00
2:56 AM,39.0,27.0,62,29.75,10.0,NNW,10.4,-,N/A,,Clear,340,2012-01-06 08:56:00
3:56 AM,39.2,26.6,61,29.75,10.0,NNW,8.1,-,N/A,,Clear,330,2012-01-06 09:56:00
4:56 AM,36.0,24.1,62,29.78,10.0,NW,4.6,-,N/A,,Clear,320,2012-01-06 10:56:00
5:56 AM,34.0,24.1,67,29.82,10.0,NNW,8.1,-,N/A,,Clear,330,2012-01-06 11:56:00
6:56 AM,32.0,24.1,73,29.86,10.0,West,4.6,-,N/A,,Clear,280,2012-01-06 12:56:00
7:56 AM,32.0,24.1,73,29.88,10.0,Calm,Calm,-,N/A,,Partly Cloudy,0,2012-01-06 13:56:00
8:56 AM,34.0,25.0,70,29.91,10.0,WNW,9.2,-,N/A,,Scattered Clouds,300,2012-01-06 14:56:00
9:56 AM,37.9,25.0,60,29.92,10.0,WNW,11.5,-,N/A,,Overcast,300,2012-01-06 15:56:00
10:56 AM,39.9,25.0,55,29.94,10.0,WNW,15.0,20.7,N/A,,Mostly Cloudy,300,2012-01-06 16:56:00
11:56 AM,41.0,25.0,53,29.92,10.0,WNW,15.0,19.6,N/A,,Mostly Cloudy,300,2012-01-06 17:56:00
12:56 PM,44.6,24.8,46,29.86,10.0,NNW,19.6,31.1,N/A,,Scattered Clouds,330,2012-01-06 18:56:00
1:56 PM,46.9,24.1,41,29.91,10.0,NW,13.8,-,N/A,,Scattered Clouds,310,2012-01-06 19:56:00
2:56 PM,46.4,21.2,37,29.89,10.0,NW,19.6,-,N/A,,Partly Cloudy,310,2012-01-06 20:56:00
3:56 PM,46.0,21.9,39,29.94,10.0,WNW,18.4,23.0,N/A,,Clear,300,2012-01-06 21:56:00
4:56 PM,39.9,21.0,47,29.97,10.0,WNW,6.9,-,N/A,,Clear,290,2012-01-06 22:56:00
5:56 PM,35.1,19.9,54,29.99,10.0,West,5.8,-,N/A,,Clear,260,2012-01-06 23:56:00
6:56 PM,33.1,19.0,56,30.00,10.0,West,10.4,-,N/A,,Clear,270,2012-01-07 00:56:00
7:56 PM,35.6,17.6,48,29.96,10.0,West,10.4,-,N/A,,Clear,280,2012-01-07 01:56:00
8:56 PM,35.1,19.0,52,30.01,10.0,WNW,12.7,-,N/A,,Clear,300,2012-01-07 02:56:00
9:56 PM,32.0,19.0,59,30.02,10.0,WNW,8.1,-,N/A,,Clear,300,2012-01-07 03:56:00
10:56 PM,32.0,19.0,59,30.03,10.0,NW,10.4,-,N/A,,Clear,310,2012-01-07 04:56:00
11:56 PM,30.9,18.0,59,30.04,10.0,WNW,13.8,-,N/A,,Clear,300,2012-01-07 05:56:00